Wind_Speed
17 17 18 19 19 19 19 19 20 21 21 20 20 21 21 21 21 21 22 22 22 23 23 23 22 21 22 23 24 24 23 24 24 24 25 25 26 27 28 28 29 29 30 29 29 28 27 28 28 28 28 28 29 31 32 32 31 30 29 27 26 25 27 29 31 32 33 34 35 36 37 39 40 42 44 46 48 49 50 51 52 52 53 53 53
13 14 15 15 15 15 15 14 14 15 15 15 16 18 18 18 18 19 19 19 20 20 20 20 20 20 21 22 23 23 23 24 24 23 23 24 24 25 26 26 27 28 29 29 29 29 30 31 31 30 31 32 33 33 33 32 31 30 28 27 27 28 30 31 33 34 36 37 39 40 42 43 43 43 44 46 47 49 51 52 53 53 54 54 55
14 15 15 15 16 18 18 18 18 18 18 19 20 22 22 21 20 20 20 19 18 19 20 20 20 21 22 23 24 25 25 25 25 24 24 24 24 25 26 27 28 29 30 31 31 32 33 34 35 35 36 38 38 36 34 33 32 31 31 30 31 31 32 33 34 36 38 41 43 45 46 47 47 47 46 46 47 49 50 52 53 53 54 55 56
16 16 16 16 17 19 20 21 22 22 23 23 24 25 25 24 23 22 21 20 19 20 20 20 20 21 22 23 24 26 26 27 27 26 25 25 25 26 27 29 30 31 32 33 34 35 36 38 39 40 41 42 41 39 37 35 34 34 35 35 35 35 35 36 38 41 44 46 48 49 50 51 51 51 49 47 47 47 49 50 52 52 53 54 54
19 18 17 17 18 20 21 23 24 24 23 24 25 25 25 25 24 24 23 23 22 22 22 22 21 21 22 23 24 26 27 28 28 28 29 29 29 30 31 33 33 34 34 34 34 35 36 36 37 37 38 39 39 39 40 40 40 41 42 42 43 43 43 44 46 49 51 52 52 53 54 55 55 55 54 51 48 47 47 48 49 50 51 51 52
21 18 18 19 21 23 23 24 25 25 24 23 24 25 25 25 25 25 25 25 25 25 25 25 25 24 24 25 27 28 29 30 31 32 33 33 34 34 34 34 35 35 35 36 37 37 36 36 35 35 35 36 38 40 41 43 45 46 46 47 48 49 51 52 53 54 54 55 55 56 57 59 59 59 58 55 51 48 47 47 48 48 49 49 49
23 22 21 23 25 25 24 25 25 25 26 26 26 27 27 28 28 28 28 29 29 29 29 29 29 28 28 29 31 31 32 32 32 33 34 36 36 37 37 37 38 38 40 42 42 41 39 38 38 38 38 39 40 41 42 44 45 46 47 48 49 50 51 53 54 54 55 56 58 60 61 62 62 62 61 58 54 50 48 47 47 47 47 48 48
28 27 27 26 26 26 26 25 24 24 26 27 27 28 29 31 32 32 32 32 32 32 33 33 33 33 33 34 34 34 34 35 36 37 39 39 40 41 41 41 42 43 44 46 45 43 42 41 41 42 43 43 44 44 44 45 46 47 48 49 50 51 52 53 54 55 57 59 61 63 64 64 64 64 62 59 56 52 50 48 47 47 47 47 47
30 30 30 28 26 26 27 26 24 25 26 27 28 30 33 35 35 35 35 35 35 35 35 35 35 35 36 36 36 36 37 38 39 41 42 42 43 43 43 44 45 45 46 46 45 45 44 44 45 46 47 47 48 48 48 49 50 51 51 52 54 55 56 57 58 59 61 63 65 65 66 67 67 66 63 60 57 54 52 49 47 46 46 45 46
32 32 31 29 27 27 28 29 28 28 29 30 31 34 36 37 38 39 40 39 38 37 36 35 35 36 36 37 37 38 39 40 42 43 44 44 44 44 45 46 46 46 46 46 45 45 46 46 48 48 49 50 52 52 53 53 54 54 55 57 58 59 61 62 63 65 66 67 68 69 69 70 69 68 64 61 58 55 53 51 49 47 46 45 45
34 33 32 31 31 31 32 33 33 32 33 33 34 37 38 39 40 43 42 40 39 38 37 36 37 37 38 39 40 41 43 44 44 44 44 44 44 44 45 45 45 45 45 45 46 47 48 49 50 50 51 52 54 54 55 56 57 58 59 61 63 65 66 67 69 70 71 72 72 73 73 73 71 69 66 63 59 56 55 53 51 50 49 47 47
35 33 33 33 34 36 37 37 36 37 37 36 36 39 40 40 42 44 43 41 40 40 39 38 38 39 41 42 42 42 42 42 41 41 41 42 42 43 43 44 44 44 45 46 47 49 50 51 53 53 55 56 58 59 60 61 62 63 64 66 68 70 71 73 74 75 75 75 76 76 75 74 72 69 66 63 59 57 55 54 53 53 53 51 51
36 36 35 36 38 39 38 37 39 40 40 38 39 40 41 42 42 43 43 42 41 39 39 39 40 40 41 40 40 39 39 39 39 39 40 40 41 42 42 43 45 46 49 51 52 54 55 56 58 60 61 63 64 65 66 67 67 69 70 72 73 75 76 77 78 78 77 77 77 77 76 73 70 68 65 61 59 58 57 56 55 55 55 55 55
39 40 40 40 40 40 38 38 41 43 42 41 41 42 42 42 42 42 41 40 40 39 39 39 39 39 39 38 39 39 40 41 41 42 43 45 46 48 50 51 53 55 57 58 60 60 62 63 65 66 67 68 68 69 70 70 72 73 75 76 77 78 79 79 79 79 78 78 77 76 74 71 69 66 63 60 59 59 59 58 57 57 57 58 57
42 42 41 39 39 39 40 42 44 45 44 43 42 42 42 41 41 41 41 41 41 41 42 42 43 43 42 43 44 45 47 48 49 51 52 53 55 56 57 58 60 61 62 63 64 65 66 67 69 70 71 72 72 73 74 75 76 77 78 79 79 79 79 80 79 78 77 77 76 74 72 70 68 65 63 61 60 60 60 60 59 59 60 60 60
42 42 42 41 41 42 44 45 46 46 46 45 43 43 42 41 40 40 42 43 43 44 45 47 48 48 49 50 51 52 53 54 55 56 57 58 59 60 62 63 64 65 66 67 68 68 70 71 72 73 75 75 76 77 77 78 78 79 79 79 80 80 79 79 78 77 77 76 75 73 71 69 67 65 63 63 62 62 62 62 61 62 62 61 62
44 44 45 44 44 45 47 48 48 48 47 46 45 45 45 44 44 43 43 44 46 48 50 51 51 52 53 54 55 55 56 57 59 60 62 63 64 65 66 67 68 69 69 70 71 72 73 74 75 76 77 77 78 78 79 79 79 79 80 79 79 78 77 76 76 76 76 75 73 71 70 69 67 66 65 65 65 65 65 65 65 66 66 65 65
49 48 48 48 49 50 50 50 51 51 50 49 48 47 47 48 48 49 50 52 54 56 57 57 58 57 57 58 58 59 60 61 62 64 66 67 68 69 70 71 72 72 73 74 74 75 76 76 77 77 78 79 79 80 80 80 80 80 79 75 72 71 70 71 73 75 75 74 73 72 71 70 69 68 68 68 69 69 69 69 70 70 70 70 70
53 52 51 51 53 54 54 54 55 55 55 54 53 53 53 54 56 57 58 59 59 59 59 60 60 59 60 61 62 63 65 66 68 70 71 72 73 74 75 76 76 77 77 77 77 77 77 78 79 79 80 81 81 81 81 81 81 81 78 75 73 72 71 72 74 75 75 75 74 73 73 72 72 72 71 72 72 73 73 74 74 74 74 74 74
57 57 57 56 57 58 59 60 61 61 60 60 61 61 62 62 63 63 63 63 62 62 62 62 62 63 65 66 68 69 70 72 74 75 76 77 77 78 79 79 80 79 79 79 79 79 80 80 81 82 83 83 83 83 83 82 82 82 81 80 80 80 79 79 79 78 77 77 77 77 76 76 75 75 75 75 76 77 77 78 79 79 78 79 78
60 60 61 63 63 64 66 66 66 66 65 65 66 68 70 71 71 71 71 70 70 69 69 69 69 70 72 73 75 76 76 76 77 78 78 78 79 79 80 81 82 82 82 82 82 83 83 84 84 85 86 86 86 86 87 87 86 86 85 85 85 84 84 83 83 82 81 81 81 81 80 79 79 80 80 80 80 81 81 81 82 83 82 82 82
61 61 62 63 65 66 67 67 67 67 66 66 66 69 71 73 74 74 74 75 74 74 74 75 75 75 77 78 80 80 79 79 79 80 81 81 80 81 81 81 82 82 82 83 84 85 87 88 88 88 89 90 90 90 90 90 89 89 89 89 88 88 87 87 87 87 86 85 85 85 84 84 84 85 86 86 86 86 86 87 86 86 86 86 86
64 65 65 66 66 67 67 67 68 68 68 68 68 69 70 71 72 73 74 75 76 76 77 79 80 81 81 82 83 84 85 85 85 85 85 85 84 84 83 83 83 83 84 85 86 88 89 89 89 90 91 91 92 92 92 92 91 91 91 91 91 91 91 90 90 90 90 90 90 89 89 89 89 90 90 91 90 91 92 92 92 91 90 90 90
68 68 69 70 71 71 71 71 71 71 71 71 72 72 73 73 74 75 75 76 77 78 79 80 82 83 84 85 86 88 89 89 90 90 89 89 88 87 87 87 87 88 88 89 90 91 91 90 90 92 93 93 94 94 94 94 94 94 94 94 94 93 93 93 92 92 92 92 92 92 93 93 94 94 94 94 94 95 96 96 95 94 94 94 94
73 73 73 73 74 74 75 75 75 75 76 76 76 77 77 78 78 78 79 79 79 80 81 82 82 83 85 86 87 88 89 90 91 92 93 93 93 92 92 92 92 93 94 94 94 94 94 94 94 95 96 96 96 97 97 97 97 97 98 98 97 97 97 96 96 96 96 95 96 96 96 96 98 99 98 97 97 99 99 98 98 98 98 97 97
79 78 78 78 78 78 79 79 80 80 81 81 81 82 82 82 82 82 83 83 83 84 84 84 85 85 86 87 88 88 89 90 91 92 93 94 95 96 96 96 96 97 97 97 97 97 97 97 98 98 98 99 99 99 100 101 101 101 102 102 102 102 102 101 101 101 100 100 100 100 100 100 101 102 100 100 101 102 101 100 101 101 100 100 99
83 83 82 82 82 83 83 83 84 84 85 85 86 86 86 87 87 87 88 88 89 89 89 89 89 89 89 89 89 90 90 90 91 93 94 96 97 98 99 99 99 99 100 100 100 100 100 101 101 101 101 101 101 102 103 104 104 105 105 105 106 106 106 106 106 105 105 105 104 104 104 104 104 103 103 103 104 103 102 102 102 102 101 100 99
86 86 86 86 86 86 86 86 86 87 87 88 88 89 90 91 91 92 93 93 94 94 94 93 93 93 94 95 95 96 96 97 97 98 99 100 101 101 101 102 102 102 103 103 103 103 103 103 103 103 103 103 104 105 105 106 107 108 108 109 109 109 109 109 109 109 108 107 107 107 107 106 106 105 105 105 104 102 102 102 101 100 99 98 97
90 90 90 90 90 90 90 90 90 90 90 91 91 92 93 94 95 96 96 97 97 97 97 97 98 98 99 100 100 101 101 102 102 103 103 104 104 105 105 105 105 105 105 105 105 104 105 104 105 105 105 106 107 107 108 109 109 110 111 111 112 112 112 112 111 110 109 109 108 107 107 107 107 106 105 104 102 100 99 99 98 96 95 93 92
94 95 95 95 96 96 96 96 96 96 96 96 96 97 97 98 98 99 99 100 100 101 101 102 102 103 103 103 104 105 105 106 106 107 107 107 107 107 107 106 106 106 106 106 106 106 107 107 108 109 109 110 110 111 111 111 111 112 112 113 113 113 113 112 111 109 108 107 107 106 106 105 105 103 101 100 97 95 94 93 92 90 88 88 87
95 96 97 98 99 100 100 101 101 101 102 102 102 102 102 102 102 103 103 104 105 105 105 106 106 106 107 107 107 108 108 108 108 108 108 108 108 108 108 108 108 108 108 109 109 110 111 112 112 113 114 114 114 114 114 113 113 113 113 113 113 112 111 109 108 106 105 105 104 103 102 101 99 96 94 92 90 88 87 86 85 83 82 82 80
97 98 99 99 101 101 102 103 104 104 105 105 105 105 105 105 105 106 107 107 107 108 108 108 109 109 109 109 109 108 108 108 108 108 108 109 109 109 109 110 110 111 112 113 114 115 115 116 116 116 116 116 116 116 115 115 114 113 112 111 110 108 107 105 103 102 102 101 100 99 97 95 92 89 86 84 82 80 79 79 78 78 77 77 76
100 100 101 102 102 103 104 104 105 106 106 107 107 107 107 107 108 108 109 109 110 110 110 110 110 110 110 110 110 109 109 109 109 109 110 110 111 111 112 113 114 115 115 116 117 118 118 118 118 118 117 117 116 116 115 114 112 111 109 107 105 103 102 100 99 98 97 95 94 93 92 90 87 83 81 79 77 75 75 74 74 73 73 73 73
103 103 103 103 104 104 105 106 107 108 108 109 109 110 110 110 110 110 110 110 110 110 110 110 110 110 110 110 110 110 110 110 110 111 111 112 113 114 115 115 116 117 117 118 118 119 119 118 118 117 117 116 114 113 112 110 109 107 105 102 100 99 97 95 94 92 91 89 88 87 87 85 82 79 76 74 72 71 70 70 69 70 70 70 70
104 104 104 104 104 104 105 105 106 107 107 108 108 108 108 108 108 107 107 107 107 107 108 108 108 108 108 109 109 109 110 111 112 113 114 115 116 117 117 117 118 118 118 119 118 118 118 117 116 115 113 112 111 109 108 106 104 102 100 97 96 94 92 90 88 86 85 83 82 82 81 79 77 74 72 69 68 67 66 66 66 66 67 67 68
99 100 101 102 102 102 102 102 103 103 103 104 104 104 104 104 104 104 104 104 104 104 105 105 106 107 107 108 109 110 112 113 114 115 116 117 118 118 118 118 118 118 118 118 117 116 115 114 113 111 110 109 107 106 104 102 99 96 94 91 90 88 86 83 81 79 78 77 76 76 76 74 72 69 67 65 64 63 63 62 63 63 64 65 65
94 95 96 97 98 98 99 99 100 100 101 101 101 102 102 102 102 102 102 102 103 103 104 105 106 107 108 110 111 112 113 115 116 116 117 118 118 118 118 118 117 116 115 114 113 112 112 111 110 109 108 106 104 101 99 96 92 89 86 84 82 81 79 77 75 73 72 71 70 70 69 68 67 64 62 61 60 60 60 59 60 61 62 62 63
93 93 94 95 96 96 97 98 99 100 100 100 101 101 101 102 102 102 103 104 105 106 107 107 108 109 110 111 112 113 115 116 116 117 117 117 117 116 116 115 114 113 112 111 111 110 109 108 106 104 101 99 96 93 90 86 83 81 79 77 76 74 72 71 69 67 66 65 64 63 62 61 60 58 57 57 57 57 56 56 57 58 59 59 58
94 94 95 95 96 96 97 98 99 100 100 101 101 102 103 103 104 104 105 106 107 108 109 109 110 111 112 113 114 114 114 115 115 115 115 114 114 114 114 113 112 111 110 108 106 104 102 99 96 94 91 88 85 82 79 77 75 74 72 70 69 67 66 65 64 62 60 59 58 57 56 55 54 53 53 54 55 54 53 53 54 55 55 54 53
95 95 96 97 97 98 98 99 100 101 101 102 103 104 104 105 105 106 107 108 108 109 110 110 111 112 113 113 113 113 112 112 112 112 112 112 111 110 109 108 106 104 101 99 96 94 91 88 86 83 81 79 76 74 72 70 69 67 65 64 63 62 61 60 59 58 56 54 53 53 53 52 50 49 49 51 52 51 50 50 52 52 51 51 50
96 96 97 98 98 99 99 100 101 101 102 103 103 104 104 105 106 106 107 108 109 110 110 111 111 111 111 111 111 110 109 109 108 107 106 104 103 101 99 96 94 91 89 87 85 83 81 79 77 76 74 72 69 67 65 64 63 61 60 59 59 58 57 57 56 55 53 52 51 50 50 49 48 47 48 49 50 48 47 48 49 49 48 48 48
97 98 98 99 99 100 100 100 101 102 102 103 104 104 105 105 106 107 107 108 109 109 110 110 110 109 108 107 106 104 102 100 98 96 94 92 90 88 86 84 82 81 79 79 77 76 74 72 71 69 67 65 63 61 60 59 58 57 56 56 55 54 54 53 53 52 51 50 49 48 47 47 45 45 46 47 47 46 46 46 46 46 46 46 46
96 97 98 98 99 99 100 100 101 101 102 102 103 103 104 104 105 105 106 106 107 107 106 105 104 102 100 97 94 92 89 87 86 84 83 81 80 78 77 76 75 74 73 72 71 70 68 66 64 62 61 60 59 58 57 56 55 53 53 53 52 51 50 50 49 49 48 47 46 45 45 44 43 43 44 44 44 44 44 44 44 45 45 45 45
91 93 94 94 95 96 96 97 97 98 98 99 99 100 100 100 100 101 101 101 100 99 97 94 92 89 87 85 83 81 80 79 78 77 76 74 73 72 71 70 69 68 66 66 65 64 62 61 59 58 57 56 55 55 54 53 51 50 50 50 48 47 47 46 46 45 45 44 43 43 43 43 42 42 42 42 42 42 42 42 43 43 43 44 44
86 87 88 89 90 90 91 91 91 92 92 93 93 93 93 93 93 93 92 91 89 87 85 83 81 80 79 78 76 75 74 72 71 70 70 69 68 67 66 64 63 62 61 61 60 59 59 57 56 54 53 53 52 52 52 50 48 47 47 47 45 43 42 42 41 41 41 41 40 40 40 40 40 40 40 40 40 40 40 40 41 41 42 42 43
82 83 83 83 84 84 84 85 85 85 85 85 85 85 85 85 85 84 83 82 80 78 77 76 75 73 72 71 70 69 68 66 66 65 65 65 64 63 61 60 59 58 57 57 57 56 56 54 53 52 51 50 50 50 49 48 46 45 44 43 42 40 39 39 38 38 38 38 38 37 37 37 38 38 37 37 37 38 38 39 39 40 40 41 41
77 78 78 78 78 79 79 79 79 79 79 79 79 80 80 79 79 78 76 75 73 72 71 70 69 68 67 66 65 64 63 62 62 62 62 61 61 59 58 57 56 55 55 54 54 54 53 52 51 49 49 48 48 47 47 46 44 43 42 40 39 38 37 37 36 36 35 35 35 35 35 35 35 35 35 35 36 36 37 37 38 39 40 40 41
72 73 73 74 74 74 75 75 75 75 75 75 75 74 74 74 73 71 70 69 68 67 66 65 64 63 63 63 62 61 60 60 60 59 59 59 58 57 56 54 53 52 52 52 52 51 51 50 48 47 46 46 45 45 45 44 42 41 40 39 38 36 36 35 35 34 33 33 33 33 33 33 33 33 33 33 34 34 35 36 37 38 39 40 40
67 67 68 69 69 69 70 70 70 70 70 69 69 69 68 68 67 66 65 65 64 63 63 62 61 61 61 60 59 59 58 57 57 57 57 56 55 54 53 52 51 50 49 49 50 49 49 47 46 45 44 43 43 43 43 42 41 39 38 37 36 35 34 33 33 32 31 31 31 31 31 31 31 32 32 32 33 33 34 35 36 37 38 38 39
63 63 64 64 65 65 65 65 65 65 65 65 65 65 65 64 64 63 63 62 62 61 60 60 59 59 58 58 57 56 55 55 55 55 54 53 53 52 51 51 50 49 48 47 47 47 46 45 43 42 41 40 40 40 40 40 39 38 36 34 33 32 31 31 30 30 29 29 29 29 29 30 30 31 31 32 32 33 34 35 36 36 37 37 37
60 60 61 61 62 62 62 62 62 62 62 62 62 62 62 62 61 61 60 60 59 58 58 58 57 56 56 55 54 53 53 52 52 53 52 51 51 50 49 49 48 47 46 45 44 44 44 43 41 40 40 39 37 37 37 38 37 36 34 32 31 31 30 29 28 28 28 28 28 28 29 29 30 30 31 31 32 33 34 35 35 36 36 36 36
Wind_Direction
234 235 237 240 243 245 247 249 249 248 247 248 249 251 251 250 249 246 246 246 247 248 248 248 249 250 252 253 254 253 253 252 251 252 253 254 255 257 258 260 261 262 261 260 257 254 251 253 259 264 269 274 278 278 276 274 274 274 274 274 274 276 281 287 293 300 306 310 314 316 316 315 310 303 297 294 292 290 288 287 286 285 285 284 284
228 233 238 244 247 250 253 255 256 253 251 253 256 258 258 256 254 250 247 245 244 244 245 245 246 247 249 251 254 255 255 254 253 253 253 254 257 259 262 265 266 265 264 263 260 258 257 260 264 268 272 278 281 281 278 274 273 274 274 274 275 277 281 287 294 300 305 309 313 316 318 319 317 312 304 297 293 290 288 286 285 284 284 283 283
240 245 251 257 261 264 265 265 265 263 263 265 266 267 267 265 263 261 258 255 252 249 248 248 249 249 249 251 253 256 257 257 256 255 254 255 257 259 262 264 265 266 266 266 266 265 265 267 270 272 277 281 283 282 277 274 273 274 274 276 278 281 285 291 296 301 305 309 312 314 316 318 319 318 313 304 296 292 289 287 285 284 283 283 283
248 255 261 265 267 268 267 266 266 267 268 270 271 272 273 272 269 267 265 266 264 261 257 256 255 255 255 256 257 259 260 260 260 260 259 259 260 261 262 264 266 268 270 271 273 274 275 276 277 280 282 284 283 280 276 276 276 276 277 279 282 285 290 295 300 303 306 308 310 312 314 316 317 319 318 312 302 294 291 288 286 285 285 284 284
252 257 261 265 268 267 265 263 263 265 267 269 271 272 273 272 270 268 268 268 268 266 264 263 262 261 260 262 262 263 262 262 263 263 263 264 265 266 267 269 270 272 274 277 280 281 282 283 284 286 287 287 285 281 279 281 281 282 283 284 285 287 290 295 299 303 306 308 309 311 312 314 316 317 318 316 308 299 294 290 288 287 286 286 285
251 251 254 261 265 267 265 261 260 260 260 261 263 266 267 266 264 263 264 265 266 266 265 265 265 265 266 267 268 267 265 263 263 265 267 268 270 272 275 276 277 277 277 280 283 285 285 287 289 291 292 291 289 287 285 285 285 285 286 288 289 290 291 294 298 302 305 307 309 310 311 313 314 316 317 317 313 305 298 293 291 289 288 288 288
250 248 250 256 261 263 262 260 259 257 254 253 255 257 260 260 259 259 259 260 263 264 264 264 264 265 269 273 275 274 271 268 269 272 275 277 278 279 280 280 281 279 279 282 286 287 287 289 290 292 294 294 293 291 289 288 288 289 290 291 293 294 295 296 299 302 305 307 308 309 310 311 313 314 315 315 314 309 302 297 294 292 291 290 289
247 247 248 252 257 259 258 256 256 256 253 252 252 253 254 255 256 257 258 259 261 263 264 264 264 266 271 275 278 278 277 275 276 278 281 282 282 281 280 280 281 281 281 284 286 287 289 291 291 293 295 295 295 294 292 292 292 293 294 294 295 296 297 299 300 303 304 306 307 308 309 310 312 313 313 313 313 310 303 299 296 294 293 292 290
243 244 246 249 252 253 251 249 250 254 256 254 251 250 251 253 255 256 257 259 262 265 267 268 269 271 275 278 279 279 278 276 277 279 280 281 281 281 280 281 282 283 283 283 285 287 289 291 291 293 295 296 297 297 295 295 296 296 296 296 296 297 298 299 301 302 303 304 306 307 308 310 311 312 311 311 311 308 303 299 297 295 294 293 292
240 241 244 248 249 246 243 245 250 255 258 257 254 254 255 257 258 260 262 265 269 271 272 273 274 276 278 280 280 279 278 278 279 280 281 282 281 281 280 281 282 283 283 284 285 286 288 289 291 293 294 295 296 296 296 297 297 297 296 296 296 296 297 298 299 301 302 304 305 306 308 309 310 310 310 309 309 306 302 299 298 296 295 295 294
239 241 243 246 247 242 238 242 249 254 255 257 258 260 262 264 265 266 269 271 272 273 274 275 276 277 279 280 280 280 280 280 281 281 281 281 281 281 281 281 282 283 284 285 285 286 287 289 290 292 292 293 294 294 295 295 295 295 295 294 295 295 297 298 299 301 302 303 305 306 307 308 308 309 309 308 307 304 301 300 299 298 298 298 297
241 243 244 244 246 245 242 244 248 251 253 256 259 262 265 267 267 270 272 272 270 271 272 273 275 277 279 281 281 281 280 280 279 279 279 279 279 280 280 281 282 283 284 286 287 287 288 288 289 290 290 291 292 293 293 293 294 294 294 294 295 296 297 298 299 301 302 303 304 305 306 306 307 307 308 307 305 303 302 300 299 298 299 299 298
243 246 248 250 251 249 246 247 248 249 251 254 257 260 262 263 264 267 270 271 272 272 273 275 277 278 280 280 281 280 280 280 280 279 280 280 280 280 281 282 282 283 284 286 286 287 287 287 288 289 290 291 292 293 293 294 294 294 295 295 296 297 297 298 299 300 301 302 303 304 304 305 306 306 306 304 303 302 301 299 298 298 298 298 298
245 247 249 251 250 247 245 246 246 247 249 253 256 257 257 258 259 260 263 267 269 270 271 273 273 273 274 275 277 278 279 279 279 279 279 279 280 280 281 281 282 282 283 284 284 285 285 286 288 289 290 291 292 292 292 293 293 294 294 295 296 297 297 298 299 300 301 302 303 303 304 304 304 304 303 302 301 300 299 298 298 297 296 297 298
244 246 245 243 242 242 242 242 242 245 249 252 253 253 253 253 254 255 257 259 261 263 265 266 266 267 267 268 270 271 273 274 275 275 276 277 278 279 279 280 281 282 282 283 284 285 286 287 288 289 290 290 291 291 291 291 292 293 293 295 296 296 297 298 298 299 300 301 302 302 303 303 303 302 301 300 298 297 297 297 296 295 295 296 297
239 240 239 238 237 237 238 238 241 245 248 249 248 247 247 247 248 251 254 256 259 262 264 265 265 264 265 266 267 268 270 271 272 274 275 276 277 278 279 280 281 282 283 284 285 286 287 288 289 289 290 290 290 290 290 291 292 292 293 295 296 296 297 298 298 299 299 300 301 301 301 301 300 300 299 297 296 295 295 295 294 293 293 294 294
234 236 236 236 236 235 236 239 241 244 245 245 245 244 244 244 244 246 249 254 258 262 263 264 264 264 265 266 267 268 270 271 273 274 276 277 278 279 280 281 282 282 283 284 285 287 288 288 289 289 290 290 290 291 291 292 292 293 294 295 296 297 297 297 297 298 299 300 300 299 299 298 298 297 296 295 294 294 293 293 292 292 292 292 292
230 233 235 236 236 237 240 241 241 241 241 242 243 243 243 243 245 248 252 257 261 264 265 266 266 266 267 267 268 270 272 274 275 277 278 279 280 281 282 283 284 284 285 286 288 289 290 290 291 291 291 291 292 292 292 292 292 293 293 294 294 296 296 296 297 298 298 298 298 297 297 296 296 295 294 294 294 294 293 293 293 293 293 293 293
229 231 234 237 238 240 241 243 243 242 242 244 245 246 247 249 252 256 259 262 264 266 266 267 267 268 269 269 271 272 274 276 278 279 280 281 283 284 285 286 287 287 288 289 290 291 292 292 293 293 293 293 292 291 291 291 291 292 292 291 291 292 292 293 295 296 296 296 295 295 295 294 294 293 293 293 293 293 293 293 293 293 293 293 294
230 232 235 238 240 242 243 244 245 247 248 249 251 252 254 256 259 262 263 264 265 265 266 266 267 268 270 271 273 274 276 278 280 281 282 283 285 286 287 288 288 289 290 291 292 293 293 293 294 294 294 293 293 292 292 292 292 292 292 292 292 292 292 293 294 295 295 294 294 294 293 293 293 292 292 292 292 292 292 292 293 293 294 294 294
231 233 236 239 241 244 245 247 249 251 252 254 255 257 257 259 261 263 264 265 266 267 267 267 268 269 271 273 274 275 277 279 280 281 283 284 285 286 287 289 290 291 292 292 293 294 294 294 295 295 294 294 294 294 294 294 294 294 294 294 294 294 294 294 294 294 294 294 293 293 293 292 292 291 291 291 291 291 292 292 292 293 293 293 293
233 234 236 239 241 243 246 248 250 252 253 254 256 258 260 261 261 262 264 266 267 268 269 269 270 271 272 273 275 276 277 278 279 281 282 283 285 286 288 289 291 292 293 294 294 294 295 295 296 295 295 295 295 295 295 295 295 295 295 295 295 294 294 294 294 294 294 294 294 294 294 293 293 293 293 293 293 293 293 292 292 292 292 292 292
233 234 235 237 239 241 243 246 248 250 251 252 254 256 259 261 262 263 264 265 267 268 269 271 272 272 273 274 275 277 278 278 279 281 282 284 285 287 288 289 290 291 292 292 293 293 294 294 295 294 294 294 294 294 294 294 294 294 294 294 294 294 295 295 295 295 295 295 295 295 295 294 294 293 293 293 293 293 292 291 292 292 291 291 290
233 235 236 237 238 239 241 243 246 248 250 252 253 255 257 259 262 264 265 266 268 269 271 272 274 275 276 277 278 279 281 282 283 284 284 285 286 287 288 289 290 290 291 291 291 292 292 292 291 291 291 291 291 292 292 292 292 292 292 292 292 292 292 292 292 292 292 292 292 292 292 291 291 290 290 290 290 289 289 290 290 290 290 290 290
234 235 237 238 239 241 242 244 246 248 250 252 254 255 257 259 261 263 265 267 269 270 272 273 275 277 278 279 280 281 283 284 285 286 286 287 288 288 289 289 290 290 290 290 290 290 289 289 289 289 289 289 289 290 290 290 290 290 290 290 290 290 290 290 289 289 289 289 289 289 289 289 289 288 289 290 289 288 289 289 290 289 289 289 289
235 237 238 240 241 243 245 247 248 250 251 253 255 257 259 260 262 264 265 267 269 270 272 274 275 277 278 280 281 282 283 284 285 286 287 288 288 289 289 289 289 289 289 289 288 288 287 287 287 287 287 288 288 289 289 289 289 289 290 290 290 290 290 290 290 290 290 289 289 289 289 288 288 289 289 289 288 288 289 289 289 288 288 288 289
237 238 239 241 242 244 246 248 250 252 253 255 256 258 260 261 263 264 266 267 269 270 272 273 275 276 277 279 280 281 282 283 284 284 285 286 286 287 287 287 287 287 287 287 286 286 285 285 286 286 287 287 287 288 288 288 288 288 289 289 289 289 289 290 290 290 290 290 290 290 289 289 289 289 289 288 287 288 288 287 287 287 287 287 287
240 241 241 242 244 245 246 248 250 252 253 255 257 258 260 261 263 264 266 267 269 270 271 273 274 275 277 278 278 279 280 281 281 282 283 283 284 284 285 285 285 286 285 285 285 284 284 284 285 285 286 286 286 286 287 287 287 287 287 288 288 288 288 289 289 289 289 289 289 289 289 289 288 288 287 287 287 287 286 286 286 286 286 286 285
243 244 244 245 246 247 248 249 250 252 254 255 257 259 260 262 263 264 266 267 268 270 271 273 274 275 276 277 278 279 280 280 281 281 281 282 282 283 283 284 284 284 284 284 284 283 283 284 284 284 284 285 285 285 285 285 285 285 286 286 287 287 287 288 288 288 288 289 289 289 288 288 288 287 287 286 286 286 286 285 285 284 284 284 284
245 245 246 247 248 249 250 251 252 253 255 256 257 259 260 262 263 265 266 267 269 270 271 272 273 274 275 276 277 278 279 279 280 280 280 281 281 282 282 283 283 283 283 282 282 282 282 282 283 283 283 283 283 283 283 283 283 284 284 285 286 286 287 287 287 288 288 288 288 288 288 287 286 286 285 285 285 285 284 283 283 283 283 282 281
246 247 247 248 249 250 251 252 253 254 255 257 258 259 261 262 263 265 266 267 268 269 271 272 273 274 275 276 277 278 278 279 279 279 280 280 281 281 281 281 281 280 280 281 281 281 281 281 282 282 282 283 283 283 283 284 284 284 285 285 286 286 286 287 287 288 288 289 288 288 287 286 285 285 284 284 283 283 282 282 281 281 280 279 279
246 247 248 249 250 251 252 253 254 255 257 258 259 260 262 263 264 265 266 268 269 270 272 273 274 275 275 276 276 277 277 277 278 278 279 279 279 279 279 279 279 279 279 279 280 280 281 281 282 282 283 283 284 284 285 285 286 286 286 286 287 287 287 288 288 289 289 288 288 287 286 285 284 283 283 282 282 281 280 280 279 279 278 278 277
248 249 250 251 252 253 254 255 256 257 258 259 260 261 263 264 265 266 268 269 270 271 272 272 273 274 274 274 275 275 275 276 276 277 277 277 278 278 278 278 278 278 279 279 279 280 281 281 282 283 283 284 285 286 286 287 287 287 287 288 288 288 289 289 289 289 288 287 287 286 285 284 283 282 282 281 281 280 279 278 277 277 276 276 276
250 251 252 253 254 255 256 257 258 259 260 261 262 262 263 264 265 266 267 268 269 270 271 271 271 272 272 273 273 274 274 275 275 276 276 276 277 277 277 278 278 278 279 279 280 281 281 282 283 284 285 286 286 287 287 288 288 288 289 289 289 289 289 289 288 287 286 286 285 284 283 282 282 281 280 280 279 278 277 276 276 275 274 273 273
251 252 252 253 254 255 256 257 258 259 260 261 262 262 263 264 265 265 266 267 268 269 270 270 271 271 272 273 273 274 274 275 275 276 276 276 277 277 277 278 278 279 279 280 281 282 283 284 285 286 286 287 288 288 289 289 289 289 289 289 289 288 288 287 286 285 284 283 282 281 281 280 280 280 279 279 278 277 276 274 273 272 271 270 270
251 252 253 254 255 256 256 257 258 259 260 261 262 263 264 264 265 266 267 268 268 269 270 271 271 272 272 273 273 274 274 275 275 276 276 276 277 277 278 278 279 280 281 282 283 284 285 286 287 287 288 289 289 289 290 289 289 289 289 288 288 287 286 285 284 283 282 280 279 279 278 278 278 279 278 277 276 275 273 272 270 269 268 268 268
252 253 254 255 256 257 258 259 260 261 261 263 263 264 265 266 267 268 268 269 269 269 270 270 271 271 272 273 273 274 274 275 275 276 276 277 277 278 279 280 281 282 283 284 285 286 287 287 288 288 289 289 289 289 288 288 288 288 287 286 286 285 284 283 281 280 279 278 277 276 276 276 277 277 277 275 274 272 270 269 268 267 266 266 267
252 254 255 256 257 258 259 260 261 261 262 263 264 265 266 266 267 267 268 268 268 269 269 269 270 270 271 272 272 273 274 274 275 276 277 278 279 280 281 282 283 284 285 286 286 287 287 287 287 287 287 287 287 286 286 286 286 286 285 284 283 282 281 280 279 278 277 276 276 275 275 275 275 274 273 272 270 269 268 268 267 266 265 266 267
253 253 254 255 256 257 258 259 260 261 262 262 263 264 264 265 265 266 267 267 268 268 269 270 270 271 271 271 272 273 274 275 276 277 279 280 281 282 283 284 284 285 285 286 286 286 286 286 286 285 285 285 285 285 285 286 285 284 283 282 282 281 280 280 279 278 277 277 276 276 275 274 272 271 270 269 268 268 267 266 265 265 265 265 266
254 254 255 255 256 257 257 258 259 260 261 261 262 263 264 264 265 266 267 268 268 269 270 270 271 271 272 272 273 274 275 277 278 279 280 281 282 282 283 283 284 284 284 284 284 284 284 284 284 284 284 284 284 285 285 284 283 282 282 282 282 281 281 280 280 279 278 277 276 275 274 273 272 271 269 267 267 266 265 264 264 264 264 264 263
255 255 256 256 257 257 258 259 260 260 261 262 263 264 264 265 266 267 268 268 269 269 270 271 271 272 273 274 275 276 277 278 279 279 280 280 280 281 281 282 282 282 282 283 283 283 283 283 284 284 284 284 284 284 284 283 283 283 283 283 283 282 281 281 280 279 279 277 276 274 273 273 272 270 268 266 266 266 264 263 263 263 263 262 262
255 256 257 257 258 258 259 260 261 261 262 263 264 264 265 266 266 267 267 268 269 269 270 271 272 273 274 275 276 277 277 278 278 278 279 279 279 280 280 281 281 282 282 282 282 282 282 283 283 283 284 284 284 284 284 283 283 284 284 283 283 282 281 280 279 279 278 277 275 273 272 271 270 268 267 266 266 265 263 262 261 261 261 260 259
254 254 255 256 257 258 258 259 260 260 261 262 263 263 264 265 265 266 267 268 269 269 271 272 273 274 275 276 276 277 277 277 278 278 279 279 280 280 280 281 281 281 281 281 281 282 282 282 283 284 284 285 285 284 284 283 284 284 283 282 282 281 281 279 278 277 276 275 273 272 270 269 267 265 264 264 264 262 261 260 259 258 258 257 257
253 254 254 255 256 256 257 258 259 259 260 261 262 263 264 264 265 266 267 268 269 270 272 273 274 275 276 276 277 277 277 278 278 278 279 279 280 280 280 280 280 280 281 281 282 283 283 284 284 284 285 285 285 284 283 283 284 283 283 282 281 281 280 278 277 276 274 273 271 269 268 266 265 263 262 262 261 260 260 258 257 256 256 255 254
255 255 256 256 257 257 258 259 259 260 261 262 263 264 264 265 266 267 268 269 271 272 273 275 275 276 276 277 277 277 277 277 278 278 279 279 279 280 280 281 281 282 283 283 284 284 285 285 285 286 286 286 285 284 284 283 283 283 283 282 281 280 279 277 276 274 273 271 270 269 267 266 265 264 263 262 261 259 258 257 255 254 253 253 252
256 257 257 258 258 259 260 260 261 262 263 263 264 265 266 267 268 269 270 272 273 274 274 275 275 276 276 276 276 277 277 278 278 279 279 280 280 281 282 283 283 284 284 285 285 285 286 286 287 287 287 286 285 284 284 284 284 284 283 283 282 281 279 278 276 274 272 270 269 268 267 266 265 263 262 260 259 257 256 255 254 253 252 251 250
257 258 259 259 260 261 261 262 263 263 264 265 266 267 267 268 269 271 272 273 273 274 274 275 275 276 276 277 277 278 278 279 279 279 280 281 282 283 283 284 284 285 285 286 286 286 286 287 287 287 286 286 285 285 285 285 285 285 285 284 283 282 281 279 276 274 272 271 269 267 266 264 263 262 260 258 257 256 255 254 253 252 251 250 250
258 258 259 260 260 261 262 262 263 264 264 265 266 267 268 269 270 271 272 273 273 274 275 275 276 276 277 277 278 278 279 279 279 280 281 282 283 283 284 285 285 286 286 287 287 286 286 286 286 286 286 285 285 285 285 285 285 285 285 285 284 282 281 279 276 274 273 271 269 268 266 265 263 261 259 257 255 254 254 253 252 251 251 250 250
258 259 259 260 260 261 261 262 263 264 265 265 266 267 268 270 271 272 272 273 274 275 275 276 276 277 277 277 277 278 278 279 280 281 282 282 283 284 285 286 286 287 287 287 287 286 286 286 286 285 285 284 285 285 285 286 286 285 285 284 283 281 279 278 276 274 273 271 270 268 267 266 264 261 259 256 254 253 252 252 251 251 250 250 250
259 260 260 261 261 262 262 263 264 265 266 267 268 269 270 270 271 272 273 273 274 275 275 275 275 276 276 276 276 277 278 279 280 281 282 283 284 285 286 287 288 288 288 287 287 286 286 286 286 285 284 284 284 284 285 285 285 285 284 283 282 281 279 277 275 274 273 272 270 268 266 264 262 260 259 256 254 253 252 251 251 251 250 250 249
260 261 261 262 263 263 264 265 265 266 267 267 268 269 269 270 271 272 272 273 273 274 274 274 274 274 274 275 275 277 278 279 280 281 282 284 285 285 286 287 288 288 288 288 287 287 287 286 286 285 285 284 284 283 283 284 284 284 284 283 282 280 278 276 274 273 272 271 269 268 265 263 261 259 257 256 255 254 252 252 251 251 250 250 249
Height
10605 10606 10607 10607 10607 10608 10608 10609 10610 10610 10611 10612 10613 10613 10614 10615 10616 10616 10615 10616 10616 10617 10618 10619 10620 10622 10623 10624 10625 10626 10628 10629 10631 10632 10634 10636 10637 10638 10638 10639 10640 10641 10642 10643 10643 10644 10644 10644 10644 10644 10643 10641 10640 10639 10637 10637 10636 10635 10634 10634 10633 10632 10632 10631 10629 10628 10627 10625 10624 10623 10621 10620 10618 10616 10613 10610 10608 10605 10602 10600 10599 10597 10596 10594 10593
10604 10604 10604 10605 10605 10605 10606 10607 10607 10608 10609 10610 10611 10611 10612 10613 10613 10613 10613 10613 10614 10614 10615 10616 10618 10619 10620 10621 10622 10623 10625 10626 10628 10629 10631 10633 10634 10635 10635 10636 10637 10637 10638 10639 10639 10640 10640 10640 10640 10639 10638 10637 10636 10635 10634 10633 10632 10631 10630 10629 10629 10628 10627 10626 10625 10623 10622 10620 10618 10617 10615 10614 10612 10610 10607 10605 10602 10599 10596 10594 10592 10590 10588 10587 10585
10601 10601 10602 10602 10602 10603 10603 10604 10605 10606 10607 10608 10609 10609 10609 10610 10611 10611 10611 10611 10612 10612 10613 10614 10615 10617 10618 10619 10620 10621 10622 10623 10625 10626 10628 10629 10630 10631 10632 10633 10633 10634 10634 10635 10636 10636 10636 10636 10636 10635 10634 10633 10631 10630 10630 10629 10628 10626 10625 10625 10624 10623 10622 10622 10620 10618 10616 10614 10613 10611 10609 10607 10606 10604 10601 10598 10596 10593 10590 10587 10585 10583 10581 10579 10578
10597 10598 10598 10598 10599 10599 10600 10601 10602 10603 10604 10604 10605 10605 10606 10607 10608 10608 10609 10610 10610 10610 10611 10612 10613 10614 10616 10617 10618 10619 10620 10620 10622 10623 10624 10626 10627 10628 10628 10629 10629 10630 10630 10631 10631 10632 10632 10631 10631 10631 10630 10628 10627 10626 10625 10624 10623 10622 10621 10620 10619 10617 10616 10615 10614 10612 10610 10608 10606 10604 10602 10601 10599 10597 10595 10592 10589 10586 10584 10581 10578 10576 10574 10572 10570
10592 10593 10594 10594 10595 10596 10596 10597 10598 10599 10600 10601 10601 10601 10602 10603 10604 10605 10606 10607 10608 10608 10609 10610 10611 10612 10613 10614 10615 10616 10617 10617 10619 10620 10621 10622 10623 10624 10624 10624 10625 10625 10626 10626 10626 10627 10627 10626 10626 10625 10624 10623 10622 10621 10620 10619 10618 10616 10615 10614 10613 10611 10610 10608 10607 10605 10604 10602 10599 10598 10595 10594 10592 10591 10588 10585 10582 10579 10577 10574 10572 10570 10568 10566 10564
10589 10589 10590 10590 10591 10592 10592 10593 10594 10595 10596 10597 10597 10597 10598 10599 10600 10601 10602 10603 10604 10605 10606 10607 10608 10609 10610 10611 10611 10612 10612 10613 10614 10615 10616 10617 10618 10619 10619 10620 10620 10620 10620 10621 10621 10621 10621 10621 10620 10619 10619 10618 10617 10616 10615 10614 10612 10611 10609 10608 10607 10605 10603 10602 10600 10598 10596 10594 10592 10590 10588 10586 10584 10583 10580 10578 10575 10573 10570 10568 10565 10564 10562 10560 10559
10586 10586 10587 10587 10587 10588 10588 10589 10590 10591 10592 10592 10593 10593 10594 10595 10595 10596 10598 10599 10600 10602 10603 10604 10605 10606 10607 10608 10608 10608 10608 10609 10610 10611 10612 10613 10613 10614 10614 10614 10615 10615 10615 10614 10614 10614 10614 10614 10613 10613 10612 10612 10611 10610 10609 10607 10606 10604 10603 10602 10600 10599 10597 10595 10594 10592 10590 10587 10585 10583 10580 10578 10576 10575 10572 10570 10568 10566 10563 10561 10559 10557 10556 10554 10553
10583 10583 10583 10583 10584 10584 10584 10585 10586 10587 10588 10588 10589 10590 10590 10590 10591 10592 10593 10595 10596 10597 10599 10600 10601 10602 10603 10603 10604 10604 10604 10605 10605 10606 10606 10607 10607 10608 10608 10608 10608 10608 10608 10607 10607 10607 10606 10606 10606 10605 10605 10605 10604 10603 10602 10601 10600 10598 10596 10595 10593 10592 10590 10588 10587 10585 10583 10581 10578 10575 10572 10570 10568 10566 10564 10562 10560 10559 10556 10554 10552 10551 10549 10548 10546
10580 10579 10580 10580 10581 10580 10580 10581 10583 10583 10584 10585 10585 10585 10585 10585 10586 10587 10588 10590 10591 10593 10594 10595 10596 10596 10597 10598 10599 10599 10599 10600 10600 10600 10600 10600 10601 10601 10601 10602 10602 10601 10601 10600 10600 10599 10599 10599 10598 10598 10597 10597 10596 10595 10595 10594 10593 10591 10590 10588 10586 10584 10583 10581 10580 10578 10576 10574 10571 10568 10565 10562 10560 10559 10557 10554 10552 10551 10549 10547 10546 10545 10543 10542 10540
10576 10576 10576 10577 10578 10577 10577 10578 10579 10580 10580 10581 10581 10581 10580 10580 10581 10581 10583 10585 10586 10587 10589 10589 10589 10590 10591 10592 10593 10593 10594 10594 10594 10594 10594 10594 10594 10594 10594 10595 10595 10594 10594 10593 10592 10592 10591 10591 10591 10590 10589 10588 10587 10587 10586 10585 10584 10583 10582 10580 10578 10577 10575 10573 10572 10570 10568 10566 10563 10561 10558 10555 10553 10551 10549 10547 10545 10543 10540 10539 10539 10538 10537 10536 10534
10572 10572 10573 10574 10574 10574 10574 10574 10575 10576 10576 10576 10576 10576 10575 10576 10576 10575 10578 10581 10582 10582 10583 10584 10584 10584 10585 10586 10587 10587 10588 10588 10588 10588 10588 10588 10587 10587 10587 10587 10587 10587 10586 10586 10585 10585 10584 10583 10583 10582 10581 10580 10579 10578 10578 10577 10576 10575 10573 10571 10570 10568 10567 10565 10563 10561 10559 10557 10554 10552 10550 10547 10544 10543 10541 10539 10537 10534 10532 10531 10530 10529 10528 10528 10527
10568 10568 10569 10570 10570 10570 10570 10571 10571 10571 10571 10572 10572 10571 10571 10572 10571 10571 10572 10574 10576 10577 10578 10579 10579 10580 10580 10581 10581 10581 10581 10581 10581 10581 10580 10580 10580 10580 10580 10579 10579 10579 10579 10579 10578 10578 10577 10576 10575 10575 10574 10573 10572 10571 10570 10569 10568 10566 10564 10562 10560 10558 10557 10555 10553 10551 10549 10547 10545 10543 10541 10539 10536 10534 10533 10530 10528 10526 10524 10522 10521 10519 10519 10518 10518
10563 10564 10565 10566 10566 10565 10565 10567 10566 10565 10566 10567 10567 10567 10567 10567 10567 10567 10567 10568 10569 10571 10572 10572 10573 10573 10573 10574 10574 10574 10574 10574 10574 10574 10573 10573 10573 10573 10573 10573 10573 10573 10572 10572 10572 10571 10570 10569 10568 10567 10566 10565 10564 10563 10561 10560 10558 10556 10555 10553 10551 10549 10547 10546 10544 10542 10540 10538 10536 10534 10532 10530 10528 10526 10524 10522 10520 10517 10515 10514 10513 10511 10510 10509 10509
10558 10559 10561 10561 10560 10559 10560 10561 10560 10559 10560 10562 10563 10563 10564 10564 10564 10564 10564 10564 10564 10565 10566 10566 10566 10567 10567 10568 10568 10568 10568 10568 10568 10568 10568 10568 10568 10568 10568 10567 10567 10567 10566 10566 10565 10564 10563 10562 10561 10559 10558 10557 10556 10554 10553 10551 10549 10547 10545 10544 10542 10540 10538 10536 10534 10532 10531 10529 10527 10525 10523 10521 10519 10517 10516 10514 10512 10509 10507 10506 10505 10503 10502 10501 10500
10553 10554 10556 10555 10554 10554 10555 10555 10554 10554 10555 10557 10558 10558 10559 10559 10560 10560 10560 10561 10561 10562 10562 10562 10562 10563 10563 10564 10564 10564 10563 10563 10563 10563 10562 10562 10562 10562 10562 10561 10561 10560 10559 10559 10558 10557 10556 10554 10553 10551 10550 10549 10548 10546 10544 10543 10541 10539 10537 10535 10533 10531 10529 10526 10523 10522 10522 10520 10518 10516 10514 10512 10510 10509 10507 10505 10503 10501 10499 10498 10497 10495 10493 10493 10492
10548 10548 10550 10550 10549 10549 10549 10549 10549 10549 10550 10551 10552 10553 10554 10554 10555 10555 10556 10556 10557 10557 10557 10557 10557 10558 10558 10558 10558 10558 10558 10557 10557 10556 10556 10556 10556 10555 10555 10554 10553 10553 10552 10551 10550 10549 10548 10546 10545 10543 10542 10541 10539 10537 10536 10534 10532 10530 10528 10526 10524 10522 10520 10517 10514 10513 10513 10511 10509 10507 10505 10503 10501 10500 10499 10496 10495 10494 10492 10490 10489 10487 10486 10486 10484
10543 10543 10544 10544 10544 10544 10543 10543 10543 10543 10544 10545 10546 10547 10548 10549 10549 10550 10551 10551 10552 10552 10552 10551 10551 10552 10552 10551 10551 10551 10550 10550 10550 10549 10549 10548 10548 10547 10547 10546 10545 10544 10543 10542 10542 10541 10539 10538 10537 10534 10533 10532 10530 10527 10526 10525 10522 10521 10519 10517 10515 10513 10511 10507 10505 10504 10504 10502 10500 10498 10497 10495 10493 10492 10491 10488 10486 10486 10484 10483 10481 10479 10478 10478 10477
10538 10538 10538 10538 10538 10538 10538 10537 10537 10537 10538 10540 10541 10541 10542 10542 10543 10544 10545 10546 10546 10546 10546 10545 10545 10545 10545 10544 10544 10543 10543 10543 10542 10541 10541 10540 10539 10538 10537 10537 10536 10535 10534 10533 10532 10532 10530 10528 10527 10525 10523 10522 10519 10517 10516 10515 10513 10512 10512 10511 10509 10507 10503 10500 10498 10496 10494 10493 10492 10489 10488 10486 10485 10483 10482 10479 10477 10476 10475 10473 10472 10470 10469 10468 10467
10533 10533 10533 10533 10533 10532 10532 10531 10530 10530 10533 10534 10535 10536 10536 10536 10537 10538 10538 10539 10539 10539 10539 10538 10538 10538 10537 10536 10536 10535 10535 10535 10534 10533 10532 10531 10530 10529 10528 10527 10526 10525 10524 10523 10522 10521 10519 10517 10515 10514 10512 10510 10509 10507 10505 10504 10503 10502 10503 10503 10502 10500 10498 10495 10493 10490 10487 10485 10484 10481 10479 10478 10476 10475 10473 10471 10469 10467 10466 10463 10461 10461 10460 10458 10457
10527 10528 10528 10527 10527 10526 10525 10524 10523 10524 10527 10529 10529 10529 10529 10528 10529 10530 10530 10531 10532 10532 10531 10530 10531 10530 10528 10528 10527 10527 10527 10527 10526 10524 10523 10522 10521 10520 10518 10517 10515 10514 10513 10512 10511 10510 10508 10507 10505 10503 10500 10499 10497 10495 10494 10493 10492 10491 10490 10489 10488 10487 10486 10485 10484 10482 10480 10477 10474 10473 10471 10469 10467 10465 10463 10462 10460 10458 10456 10454 10450 10450 10450 10447 10447
10520 10522 10521 10521 10520 10518 10517 10517 10518 10519 10521 10523 10522 10519 10519 10520 10521 10521 10521 10522 10523 10523 10522 10522 10523 10522 10520 10519 10518 10519 10520 10519 10517 10515 10514 10513 10512 10511 10509 10507 10504 10502 10502 10500 10499 10498 10496 10495 10495 10492 10489 10487 10485 10483 10481 10480 10479 10478 10476 10475 10474 10473 10473 10472 10471 10470 10469 10467 10464 10463 10461 10459 10457 10455 10453 10453 10451 10448 10446 10444 10441 10439 10438 10437 10435
10513 10515 10515 10514 10513 10512 10511 10512 10513 10512 10514 10516 10514 10511 10509 10511 10513 10514 10513 10512 10513 10513 10513 10512 10513 10513 10512 10510 10509 10509 10511 10511 10510 10508 10506 10505 10504 10503 10501 10498 10494 10491 10490 10487 10486 10484 10483 10482 10482 10480 10476 10474 10472 10471 10468 10467 10466 10465 10463 10461 10460 10459 10459 10459 10458 10456 10456 10454 10453 10451 10450 10448 10445 10442 10440 10439 10438 10436 10433 10431 10430 10429 10428 10427 10423
10505 10507 10507 10506 10506 10506 10505 10505 10505 10505 10505 10507 10507 10504 10502 10503 10504 10504 10505 10504 10504 10503 10503 10502 10502 10502 10502 10501 10499 10498 10498 10500 10500 10499 10498 10497 10495 10494 10492 10490 10487 10484 10482 10479 10476 10474 10472 10470 10469 10467 10464 10462 10460 10459 10457 10455 10454 10453 10451 10449 10447 10446 10445 10445 10444 10442 10441 10440 10439 10438 10436 10434 10432 10430 10428 10427 10426 10425 10421 10418 10419 10418 10416 10415 10412
10497 10498 10499 10498 10498 10498 10498 10498 10498 10497 10498 10498 10498 10497 10496 10496 10495 10495 10495 10495 10495 10495 10494 10494 10493 10492 10491 10491 10490 10488 10487 10486 10486 10486 10486 10486 10485 10484 10482 10480 10478 10475 10473 10471 10468 10465 10464 10462 10460 10457 10454 10452 10450 10448 10446 10444 10442 10441 10439 10438 10437 10436 10435 10434 10433 10432 10431 10429 10429 10427 10426 10424 10421 10418 10418 10418 10417 10414 10410 10408 10408 10407 10404 10403 10401
10489 10490 10491 10491 10491 10491 10491 10491 10491 10490 10490 10490 10489 10489 10488 10488 10488 10487 10487 10487 10486 10486 10486 10485 10484 10483 10481 10480 10480 10479 10478 10476 10474 10473 10473 10472 10472 10471 10470 10469 10467 10465 10462 10461 10459 10457 10455 10452 10450 10447 10444 10442 10440 10437 10435 10433 10431 10429 10426 10425 10424 10424 10423 10422 10422 10421 10421 10420 10419 10417 10416 10415 10409 10405 10406 10407 10404 10399 10397 10397 10395 10393 10390 10389 10388
10480 10482 10483 10484 10484 10484 10483 10483 10483 10482 10482 10482 10482 10481 10480 10480 10479 10479 10478 10478 10478 10477 10477 10476 10475 10474 10473 10472 10471 10470 10469 10467 10465 10463 10461 10459 10458 10458 10457 10456 10456 10454 10452 10450 10448 10446 10443 10440 10438 10436 10434 10431 10429 10426 10423 10421 10418 10416 10413 10411 10410 10409 10408 10407 10407 10406 10406 10406 10405 10404 10404 10402 10396 10393 10395 10393 10388 10386 10386 10384 10381 10379 10377 10376 10374
10472 10473 10474 10474 10475 10475 10475 10474 10474 10474 10474 10473 10473 10472 10472 10471 10470 10470 10469 10469 10468 10468 10467 10467 10466 10465 10464 10463 10463 10462 10461 10460 10458 10455 10453 10450 10448 10446 10445 10444 10443 10442 10440 10439 10437 10434 10430 10427 10425 10424 10422 10420 10417 10414 10412 10408 10405 10403 10400 10398 10396 10395 10393 10392 10391 10390 10390 10390 10389 10388 10387 10385 10382 10381 10381 10377 10373 10373 10373 10370 10367 10365 10363 10362 10361
10463 10463 10464 10465 10465 10465 10465 10465 10465 10464 10464 10464 10463 10463 10462 10461 10461 10460 10460 10459 10459 10458 10458 10457 10457 10456 10455 10454 10453 10452 10451 10450 10449 10447 10444 10442 10439 10437 10435 10434 10432 10430 10428 10427 10425 10422 10418 10416 10414 10412 10410 10408 10405 10403 10400 10397 10393 10390 10387 10385 10383 10381 10380 10378 10376 10375 10374 10374 10374 10372 10370 10368 10366 10365 10363 10360 10358 10359 10358 10355 10353 10351 10350 10348 10347
10452 10453 10454 10455 10455 10455 10455 10455 10455 10455 10454 10454 10454 10453 10452 10452 10451 10451 10450 10450 10449 10449 10448 10448 10447 10446 10445 10444 10442 10441 10440 10439 10438 10436 10434 10431 10429 10426 10424 10421 10419 10417 10415 10413 10411 10408 10406 10404 10402 10400 10398 10396 10393 10391 10389 10386 10383 10380 10376 10372 10370 10368 10366 10365 10363 10362 10360 10359 10358 10357 10354 10351 10349 10348 10345 10343 10342 10343 10341 10339 10337 10336 10336 10334 10332
10442 10442 10443 10444 10444 10444 10444 10444 10444 10444 10444 10444 10444 10444 10443 10443 10442 10442 10441 10440 10440 10439 10439 10438 10437 10436 10435 10433 10432 10430 10429 10427 10426 10423 10421 10419 10416 10414 10411 10409 10406 10404 10401 10399 10397 10395 10392 10390 10388 10386 10385 10383 10381 10379 10377 10374 10372 10369 10366 10362 10359 10356 10353 10351 10349 10348 10347 10344 10342 10341 10339 10335 10332 10331 10329 10328 10328 10328 10326 10323 10322 10322 10322 10319 10318
10431 10432 10433 10433 10433 10433 10433 10433 10434 10434 10434 10434 10434 10435 10435 10434 10434 10433 10432 10430 10429 10429 10428 10427 10426 10425 10424 10422 10420 10418 10416 10414 10412 10410 10408 10406 10403 10401 10399 10396 10393 10391 10388 10385 10383 10380 10378 10376 10373 10371 10369 10367 10365 10363 10361 10359 10357 10355 10353 10349 10346 10342 10339 10337 10335 10333 10332 10328 10325 10323 10321 10318 10315 10315 10314 10313 10313 10313 10312 10309 10308 10308 10307 10304 10305
10421 10422 10422 10423 10423 10423 10423 10423 10423 10424 10424 10424 10425 10425 10425 10425 10424 10423 10422 10420 10419 10418 10417 10416 10415 10413 10411 10410 10408 10406 10403 10401 10399 10397 10395 10392 10390 10388 10386 10383 10380 10377 10375 10372 10369 10365 10363 10361 10359 10356 10353 10351 10348 10346 10344 10343 10341 10338 10336 10333 10330 10327 10324 10322 10320 10318 10315 10312 10309 10305 10302 10300 10299 10299 10299 10299 10299 10299 10298 10296 10295 10294 10293 10292 10292
10411 10412 10413 10413 10413 10413 10413 10414 10414 10414 10414 10414 10414 10415 10415 10415 10414 10413 10411 10409 10408 10407 10406 10404 10402 10400 10398 10396 10394 10392 10391 10389 10386 10384 10381 10379 10376 10374 10371 10368 10365 10362 10360 10357 10354 10351 10348 10346 10344 10341 10339 10336 10334 10331 10328 10326 10323 10321 10318 10316 10313 10310 10307 10306 10304 10302 10299 10297 10294 10290 10286 10283 10283 10284 10285 10285 10285 10285 10285 10284 10283 10282 10281 10280 10280
10402 10402 10403 10403 10403 10403 10403 10403 10403 10403 10402 10402 10402 10402 10403 10403 10403 10402 10400 10398 10396 10395 10393 10391 10389 10387 10384 10382 10380 10378 10376 10375 10372 10370 10367 10364 10361 10359 10356 10353 10350 10347 10344 10342 10339 10336 10333 10331 10329 10326 10324 10321 10318 10315 10313 10309 10306 10303 10301 10298 10296 10294 10291 10289 10288 10286 10284 10282 10280 10276 10272 10269 10269 10271 10271 10272 10272 10272 10272 10272 10271 10271 10270 10269 10269
10390 10390 10391 10392 10392 10392 10392 10392 10391 10391 10390 10390 10389 10389 10390 10390 10390 10390 10389 10387 10385 10382 10379 10377 10375 10373 10371 10369 10366 10364 10361 10359 10357 10354 10352 10349 10346 10343 10341 10338 10335 10332 10329 10327 10324 10322 10319 10317 10314 10311 10308 10305 10302 10299 10296 10293 10290 10287 10285 10283 10281 10278 10276 10275 10273 10271 10269 10268 10265 10262 10259 10257 10257 10258 10259 10260 10260 10260 10260 10260 10260 10259 10258 10258 10259
10377 10378 10378 10379 10379 10380 10380 10379 10379 10379 10378 10377 10377 10376 10376 10376 10376 10376 10375 10374 10372 10369 10366 10363 10361 10359 10357 10355 10353 10350 10347 10344 10342 10339 10337 10334 10331 10329 10326 10324 10321 10318 10315 10313 10311 10308 10305 10302 10298 10295 10292 10289 10286 10283 10280 10278 10275 10273 10270 10268 10266 10264 10262 10260 10259 10258 10256 10255 10252 10249 10247 10246 10246 10247 10248 10248 10249 10248 10248 10248 10248 10248 10247 10248 10248
10365 10366 10366 10366 10367 10368 10368 10367 10366 10366 10365 10365 10364 10364 10363 10363 10363 10363 10362 10360 10358 10356 10353 10351 10348 10346 10344 10341 10339 10336 10333 10330 10327 10325 10322 10319 10317 10314 10312 10310 10307 10305 10302 10299 10297 10294 10290 10287 10284 10280 10277 10274 10271 10269 10266 10264 10262 10259 10257 10255 10253 10250 10249 10247 10246 10245 10244 10242 10240 10239 10237 10236 10236 10237 10238 10237 10237 10237 10237 10237 10238 10237 10237 10237 10238
10352 10352 10353 10354 10354 10355 10355 10355 10353 10353 10353 10353 10352 10351 10351 10350 10350 10349 10348 10346 10344 10341 10340 10338 10336 10334 10332 10329 10326 10323 10320 10317 10314 10312 10310 10307 10304 10301 10298 10296 10293 10291 10288 10285 10282 10279 10276 10273 10270 10267 10265 10262 10259 10256 10254 10252 10250 10247 10245 10242 10240 10238 10236 10235 10233 10232 10232 10231 10229 10228 10228 10228 10228 10228 10228 10227 10226 10226 10227 10227 10228 10227 10228 10229 10231
10339 10339 10339 10340 10341 10342 10342 10341 10340 10340 10340 10340 10339 10338 10337 10337 10336 10335 10333 10331 10329 10327 10326 10325 10323 10320 10318 10315 10313 10311 10308 10306 10304 10301 10298 10295 10292 10289 10285 10282 10279 10277 10274 10271 10268 10265 10262 10259 10257 10255 10253 10250 10247 10245 10243 10241 10239 10235 10232 10231 10229 10227 10225 10223 10221 10220 10220 10220 10220 10219 10218 10218 10218 10218 10218 10217 10216 10217 10218 10218 10218 10219 10220 10222 10223
10325 10326 10326 10326 10327 10328 10328 10327 10327 10326 10326 10326 10325 10324 10324 10324 10323 10321 10319 10317 10315 10313 10312 10310 10308 10305 10303 10301 10299 10298 10296 10295 10293 10290 10287 10284 10280 10276 10273 10270 10267 10264 10261 10257 10254 10252 10249 10247 10245 10243 10241 10238 10236 10235 10233 10230 10227 10224 10222 10220 10218 10216 10214 10212 10211 10210 10210 10211 10210 10209 10208 10208 10209 10210 10209 10208 10208 10209 10210 10210 10210 10211 10213 10214 10215
10312 10312 10312 10313 10313 10313 10313 10314 10314 10313 10313 10312 10311 10311 10310 10310 10309 10307 10305 10303 10301 10300 10298 10296 10294 10291 10290 10288 10287 10286 10284 10282 10280 10277 10275 10272 10268 10265 10262 10259 10256 10253 10249 10246 10242 10240 10238 10236 10234 10232 10229 10227 10226 10225 10222 10219 10216 10214 10212 10210 10208 10206 10204 10203 10201 10201 10201 10201 10201 10200 10199 10199 10200 10201 10200 10200 10200 10201 10202 10202 10203 10204 10205 10207 10208
10298 10298 10298 10298 10299 10299 10300 10300 10300 10300 10299 10298 10298 10297 10296 10296 10295 10293 10291 10290 10288 10286 10284 10282 10281 10279 10278 10277 10276 10274 10272 10270 10267 10265 10262 10259 10257 10253 10250 10248 10245 10242 10238 10235 10232 10229 10228 10226 10224 10222 10219 10217 10216 10214 10212 10209 10207 10205 10203 10201 10199 10197 10196 10194 10193 10192 10192 10192 10191 10192 10191 10191 10192 10192 10192 10192 10193 10194 10195 10195 10196 10197 10198 10199 10200
10284 10284 10285 10285 10285 10286 10287 10287 10287 10287 10286 10285 10284 10284 10283 10283 10282 10280 10278 10277 10275 10274 10272 10271 10269 10268 10266 10265 10263 10261 10259 10257 10255 10252 10249 10247 10245 10242 10239 10237 10235 10232 10228 10225 10222 10220 10218 10217 10215 10213 10211 10208 10207 10205 10202 10200 10199 10197 10195 10193 10191 10189 10188 10187 10185 10184 10184 10184 10184 10183 10183 10183 10184 10184 10184 10184 10185 10186 10187 10188 10189 10190 10191 10192 10193
10270 10271 10271 10272 10272 10273 10274 10274 10274 10274 10273 10272 10271 10271 10270 10270 10269 10267 10266 10264 10263 10262 10261 10259 10258 10256 10254 10252 10250 10249 10247 10245 10242 10240 10238 10235 10233 10231 10229 10227 10225 10222 10219 10216 10213 10210 10209 10207 10206 10204 10202 10200 10198 10196 10193 10192 10191 10189 10187 10185 10184 10183 10181 10180 10178 10177 10176 10176 10176 10176 10175 10176 10176 10176 10176 10177 10178 10179 10180 10181 10183 10183 10184 10185 10186
10257 10257 10257 10258 10259 10260 10260 10260 10260 10260 10260 10259 10258 10258 10258 10257 10256 10255 10253 10252 10252 10251 10249 10247 10246 10244 10242 10240 10238 10237 10235 10233 10231 10229 10226 10224 10222 10220 10219 10217 10215 10212 10210 10207 10204 10201 10199 10198 10197 10195 10194 10191 10189 10187 10185 10184 10184 10182 10179 10177 10177 10176 10174 10173 10171 10170 10169 10169 10169 10169 10169 10169 10169 10170 10170 10171 10172 10173 10174 10175 10176 10177 10178 10178 10179
10243 10243 10244 10245 10246 10246 10247 10247 10247 10247 10247 10246 10246 10245 10245 10244 10243 10242 10241 10240 10240 10239 10237 10236 10234 10233 10231 10229 10227 10226 10224 10223 10221 10218 10216 10214 10212 10210 10209 10207 10206 10203 10201 10198 10195 10193 10191 10189 10188 10187 10185 10183 10181 10179 10177 10176 10175 10174 10172 10170 10169 10169 10167 10166 10165 10164 10163 10162 10162 10162 10162 10163 10163 10164 10164 10165 10165 10166 10167 10168 10169 10170 10171 10172 10173
10229 10230 10231 10232 10232 10233 10233 10234 10234 10234 10234 10234 10233 10233 10233 10232 10231 10230 10229 10229 10228 10227 10226 10225 10223 10222 10220 10218 10216 10215 10214 10213 10211 10208 10206 10204 10203 10201 10200 10198 10197 10194 10192 10190 10187 10185 10183 10181 10180 10179 10177 10175 10173 10171 10170 10168 10167 10166 10165 10164 10163 10162 10161 10159 10158 10157 10157 10156 10156 10156 10156 10157 10157 10158 10158 10159 10159 10160 10161 10162 10163 10164 10164 10165 10166
10217 10218 10219 10219 10220 10220 10221 10221 10222 10222 10222 10222 10222 10222 10221 10220 10219 10219 10218 10218 10217 10216 10215 10214 10213 10211 10209 10208 10207 10206 10204 10203 10201 10199 10197 10196 10194 10192 10191 10190 10188 10186 10184 10182 10179 10177 10175 10174 10173 10172 10170 10168 10166 10164 10162 10161 10160 10159 10158 10157 10156 10155 10154 10153 10152 10151 10150 10150 10150 10150 10150 10151 10151 10152 10152 10153 10153 10154 10155 10155 10156 10157 10158 10159 10160
10205 10206 10207 10208 10208 10209 10209 10209 10210 10210 10210 10211 10211 10210 10210 10209 10208 10208 10208 10207 10206 10205 10205 10204 10202 10201 10200 10199 10198 10197 10195 10194 10193 10191 10189 10188 10186 10185 10183 10181 10180 10179 10177 10174 10172 10170 10168 10167 10166 10165 10163 10162 10160 10158 10156 10154 10153 10153 10152 10151 10150 10149 10148 10147 10146 10145 10144 10144 10144 10144 10145 10145 10146 10146 10146 10147 10147 10148 10149 10149 10150 10151 10153 10154 10154
10193 10194 10195 10196 10197 10197 10198 10198 10199 10199 10199 10200 10200 10199 10199 10198 10198 10198 10198 10197 10196 10196 10195 10194 10193 10192 10191 10190 10189 10188 10187 10186 10185 10183 10181 10180 10179 10177 10175 10174 10172 10171 10169 10167 10165 10163 10161 10160 10159 10158 10157 10156 10154 10152 10150 10148 10147 10146 10146 10145 10144 10143 10142 10141 10140 10140 10139 10139 10139 10139 10139 10139 10140 10140 10141 10141 10142 10142 10143 10144 10145 10146 10147 10148 10149
10183 10184 10185 10185 10186 10186 10187 10188 10188 10189 10189 10189 10189 10189 10189 10189 10189 10188 10188 10188 10187 10187 10186 10185 10184 10184 10183 10182 10181 10180 10180 10178 10177 10175 10174 10172 10171 10170 10168 10167 10165 10163 10162 10160 10158 10156 10154 10153 10152 10151 10150 10149 10148 10147 10145 10143 10141 10141 10140 10140 10139 10137 10137 10136 10135 10135 10134 10134 10134 10134 10134 10134 10134 10135 10135 10136 10136 10137 10138 10139 10139 10140 10141 10142 10143